[Date Prev][Date Next][Thread Prev][Thread Next] - [Date Index][Thread Index][Author Index]
2 Line ISS Keps 3-7
- Subject: [sarex] 2 Line ISS Keps 3-7
- From: "Dave Larsen Ph.D." <doc@xxxxxxxxxxx>
- Date: Fri, 7 Mar 2003 02:29:26 -0800
ISS
1 25544U 98067A 03066.12118030 .00028777 00000-0 36253-3 0 7543
2 25544 51.6358 172.8777 0011921 286.7406 142.8958 15.59304389245089
----
Via the sarex mailing list at AMSAT.ORG courtesy of AMSAT-NA.
To unsubscribe, send "unsubscribe sarex" to Majordomo@amsat.org
AMSAT Home